Weather History for Hulett, WY

Change the Weather History Date:

Friday, September 13, 2013

  Actual Average (KEFC) Record (KEFC)
Temperature  
Mean Temperature 65 °F -  
Max Temperature 71 °F 75 °F 97 °F (1959)
Min Temperature 59 °F 44 °F 29 °F (1949)
Growing Degree Days 15 (Base 50)    
Moisture  
Dew Point 54 °F    
Average Humidity 68    
Maximum Humidity 88    
Minimum Humidity 52    
Precipitation  
Precipitation 0.00 in - - ()
Sea Level Pressure  
Sea Level Pressure 30.06 in    
Wind  
Wind Speed 10 mph (South)    
Max Wind Speed 17 mph    
Max Gust Speed 25 mph    
Visibility 10 miles    
Events Rain    
Averages and records for this station are not official NWS values.
T = Trace of Precipitation, MM = Missing Value Source: NWS Daily Summary

Daily Weather History Graph

Daily Weather History Graph

Search for Another Location

Airport:

Trip Planner

Search our weather history database for the weather conditions in past years. The results will help you decide how hot, cold, wet, or windy it might be!

Date:

Astronomy

Sep. 13, 2013 Rise Set
Actual Time 6:35 AM MDT 7:12 PM MDT
Civil Twilight 6:05 AM MDT 7:41 PM MDT
Nautical Twilight 5:30 AM MDT 8:16 PM MDT
Astronomical Twilight 4:54 AM MDT 8:52 PM MDT
Moon 3:14 PM MDT (9/13) No Moon Set
Length of Visible Light 13h 35m
Length of Day
12h 37m
Waxing Gibbous, 62% of the Moon is Illuminated
Sep 13
Waxing Gibbous
Sep 19
Full
Sep 26
Last Quarter
Oct 4
New
Oct 11
First Quarter

Hourly Weather History & Observations

Time (MDT) Temp. Dew Point Humidity Pressure Visibility Wind Dir Wind Speed Gust Speed Precip Events Conditions
12:15 AM 64.4 °F 46.4 °F 52% 30.21 in 10.0 mi South 9.2 mph - N/A   Clear
12:35 AM 64.4 °F 46.4 °F 52% 30.21 in 10.0 mi South 9.2 mph 17.3 mph N/A   Clear
12:55 AM 64.4 °F 46.4 °F 52% 30.21 in 10.0 mi South 10.4 mph 19.6 mph N/A   Clear
1:15 AM 64.4 °F 46.4 °F 52% 30.20 in 10.0 mi South 12.7 mph 17.3 mph N/A   Clear
1:35 AM 64.4 °F 46.4 °F 52% 30.20 in 10.0 mi South 10.4 mph 16.1 mph N/A   Clear
1:55 AM 64.4 °F 46.4 °F 52% 30.20 in 10.0 mi SSE 13.8 mph 17.3 mph N/A   Clear
2:15 AM 64.4 °F 46.4 °F 52% 30.20 in 10.0 mi SSE 13.8 mph 18.4 mph N/A   Clear
2:35 AM 64.4 °F 46.4 °F 52% 30.19 in 10.0 mi SSE 13.8 mph - N/A   Clear
2:55 AM 62.6 °F 46.4 °F 55% 30.19 in 10.0 mi SSE 9.2 mph - N/A   Clear
3:15 AM 62.6 °F 48.2 °F 59% 30.18 in 10.0 mi SSE 9.2 mph - N/A   Clear
3:35 AM 62.6 °F 50.0 °F 63% 30.18 in 10.0 mi SSE 8.1 mph - N/A   Clear
3:55 AM 62.6 °F 51.8 °F 68% 30.18 in 10.0 mi SSE 9.2 mph - N/A   Clear
4:15 AM 62.6 °F 51.8 °F 68% 30.17 in 10.0 mi South 9.2 mph - N/A   Clear
4:35 AM 62.6 °F 51.8 °F 68% 30.17 in 10.0 mi South 11.5 mph - N/A   Clear
4:55 AM 62.6 °F 51.8 °F 68% 30.17 in 10.0 mi SSE 6.9 mph - N/A   Clear
5:15 AM 60.8 °F 51.8 °F 72% 30.16 in 10.0 mi SE 4.6 mph - N/A   Clear
5:35 AM 60.8 °F 51.8 °F 72% 30.16 in 10.0 mi ESE 3.5 mph - N/A   Clear
5:55 AM 59.0 °F 50.0 °F 72% 30.15 in 10.0 mi North - - N/A   Clear
6:15 AM 59.0 °F 50.0 °F 72% 30.15 in 10.0 mi ESE 3.5 mph - N/A   Clear
6:35 AM 59.0 °F 51.8 °F 77% 30.15 in 10.0 mi SE 3.5 mph - N/A   Clear
6:55 AM 59.0 °F 51.8 °F 77% 30.15 in 10.0 mi East 3.5 mph - N/A   Clear
7:15 AM 59.0 °F 51.8 °F 77% 30.14 in 10.0 mi East 3.5 mph - N/A   Clear
7:35 AM 60.8 °F 53.6 °F 77% 30.14 in 10.0 mi Calm Calm - N/A   Scattered Clouds
7:55 AM 62.6 °F 53.6 °F 72% 30.13 in 10.0 mi Calm Calm - N/A   Scattered Clouds
8:15 AM 64.4 °F 55.4 °F 73% 30.12 in 10.0 mi SSE 6.9 mph - N/A   Clear
8:35 AM 68.0 °F 55.4 °F 64% 30.12 in 10.0 mi South 6.9 mph - N/A   Scattered Clouds
8:55 AM 68.0 °F 55.4 °F 64% 30.12 in 10.0 mi South 6.9 mph 16.1 mph N/A   Mostly Cloudy
9:15 AM 68.0 °F 55.4 °F 64% 30.12 in 10.0 mi South 10.4 mph - N/A   Mostly Cloudy
9:35 AM 68.0 °F 55.4 °F 64% 30.12 in 10.0 mi South 13.8 mph 19.6 mph N/A   Overcast
9:55 AM 68.0 °F 55.4 °F 64% 30.12 in 10.0 mi South 16.1 mph 21.9 mph N/A   Overcast
10:15 AM 68.0 °F 55.4 °F 64% 30.11 in 10.0 mi South 8.1 mph - N/A   Overcast
10:35 AM 68.0 °F 55.4 °F 64% 30.11 in 10.0 mi South 10.4 mph 17.3 mph N/A   Overcast
10:55 AM 68.0 °F 55.4 °F 64% 30.10 in 10.0 mi South 13.8 mph 21.9 mph N/A   Overcast
11:15 AM 68.0 °F 55.4 °F 64% 30.09 in 10.0 mi South 13.8 mph 25.3 mph N/A   Overcast
11:35 AM 69.8 °F 55.4 °F 60% 30.08 in 10.0 mi SSW 9.2 mph - N/A   Overcast
11:55 AM 69.8 °F 55.4 °F 60% 30.07 in 10.0 mi South 13.8 mph 20.7 mph N/A   Overcast
12:15 PM 69.8 °F 55.4 °F 60% 30.07 in 10.0 mi South 15.0 mph 23.0 mph N/A   Overcast
12:35 PM 69.8 °F 55.4 °F 60% 30.05 in 10.0 mi South 11.5 mph 18.4 mph N/A   Overcast
12:55 PM 71.6 °F 55.4 °F 57% 30.04 in 10.0 mi South 10.4 mph 18.4 mph N/A   Mostly Cloudy
1:15 PM 71.6 °F 55.4 °F 57% 30.03 in 10.0 mi South 13.8 mph - N/A   Scattered Clouds
1:35 PM 71.6 °F 55.4 °F 57% 30.03 in 10.0 mi South 12.7 mph 18.4 mph N/A   Mostly Cloudy
1:55 PM 69.8 °F 55.4 °F 60% 30.03 in 10.0 mi South 16.1 mph - N/A   Overcast
2:15 PM 69.8 °F 57.2 °F 64% 30.02 in 10.0 mi South 13.8 mph - N/A   Overcast
2:35 PM 71.6 °F 57.2 °F 60% 30.01 in 10.0 mi SSE 17.3 mph 20.7 mph N/A   Overcast
2:55 PM 69.8 °F 57.2 °F 64% 30.01 in 10.0 mi South 13.8 mph - N/A   Overcast
3:15 PM 69.8 °F 57.2 °F 64% 30.00 in 10.0 mi SSE 13.8 mph 18.4 mph N/A   Overcast
3:35 PM 69.8 °F 55.4 °F 60% 30.00 in 10.0 mi South 12.7 mph - N/A   Mostly Cloudy
3:55 PM 69.8 °F 57.2 °F 64% 29.99 in 10.0 mi South 9.2 mph - N/A   Mostly Cloudy
4:15 PM 68.0 °F 57.2 °F 68% 29.99 in 10.0 mi South 10.4 mph 17.3 mph N/A   Mostly Cloudy
4:35 PM 68.0 °F 57.2 °F 68% 29.99 in 10.0 mi South 9.2 mph - N/A   Overcast
4:55 PM 68.0 °F 57.2 °F 68% 29.99 in 10.0 mi South 9.2 mph - N/A   Overcast
5:15 PM 66.2 °F 57.2 °F 73% 29.98 in 10.0 mi South 3.5 mph - N/A   Overcast
5:35 PM 68.0 °F 57.2 °F 68% 29.98 in 10.0 mi SSW 8.1 mph - N/A   Mostly Cloudy
5:55 PM 66.2 °F 57.2 °F 73% 29.97 in 10.0 mi SSW 6.9 mph - N/A   Scattered Clouds
6:15 PM 66.2 °F 57.2 °F 73% 29.96 in 10.0 mi South 8.1 mph - N/A   Mostly Cloudy
6:35 PM 66.2 °F 57.2 °F 73% 29.95 in 10.0 mi South 5.8 mph - N/A Rain Light Rain
6:55 PM 64.4 °F 57.2 °F 77% 29.94 in 10.0 mi North - - N/A Rain Light Rain
7:15 PM 64.4 °F 57.2 °F 77% 29.94 in 10.0 mi North - - N/A   Overcast
7:35 PM 62.6 °F 59.0 °F 88% 29.94 in 10.0 mi SW 6.9 mph - N/A Rain Light Rain
7:55 PM 62.6 °F 59.0 °F 88% 29.94 in 10.0 mi North - - N/A   Overcast
8:15 PM 62.6 °F 59.0 °F 88% 29.94 in 10.0 mi North - - N/A   Mostly Cloudy
8:35 PM 62.6 °F 59.0 °F 88% 29.94 in 10.0 mi SW 4.6 mph - N/A   Scattered Clouds
8:55 PM 62.6 °F 57.2 °F 82% 29.94 in 10.0 mi SSW 9.2 mph - N/A   Overcast
9:15 PM 62.6 °F 57.2 °F 82% 29.94 in 10.0 mi SSW 11.5 mph 18.4 mph N/A   Overcast
9:35 PM 62.6 °F 57.2 °F 82% 29.94 in 10.0 mi North - - N/A   Overcast
9:55 PM 62.6 °F 55.4 °F 77% 29.93 in 10.0 mi North - - N/A   Overcast
10:15 PM 62.6 °F 55.4 °F 77% 29.92 in 10.0 mi South 10.4 mph 19.6 mph N/A   Overcast
10:35 PM 62.6 °F 55.4 °F 77% 29.92 in 10.0 mi North - - N/A   Overcast
10:55 PM 62.6 °F 55.4 °F 77% 29.91 in 10.0 mi North - - N/A   Overcast
11:15 PM 62.6 °F 55.4 °F 77% 29.91 in 10.0 mi SSW 11.5 mph - N/A   Overcast
11:35 PM 60.8 °F 55.4 °F 82% 29.91 in 10.0 mi North - - N/A   Overcast
11:55 PM 62.6 °F 55.4 °F 77% 29.91 in 10.0 mi SSW 13.8 mph - N/A   Overcast